[[{"header":{"parameterUnit":"m.s-1","parameterCategory":1,"la1":30.2991,"la2":30.254,"lo1":-89.0895,"lo2":-89.0444,"dy":0.0017,"dx":0.0017,"nx":28,"ny":28,"refTime":"2024-02-29T03:00:00:Z","depth":0,"parameterNumber":2,"parameterNumberName":"U-component_of_WINDS"},"data":[0,0,0,0,0,0,0,0,0,0,0,0,0,0,0,0,0,0,0,0,0,0,0,0,0,0,0,0,0,0,0,0,0,0,0,0,0,0,0,0,0,0,0,0,0,0,0,0,0,0,0,0,0,0,0,0,0,0,-8.1393,-8.1394,0,-8.1527,-8.1529,-8.153,-8.1397,-8.1392,-8.1386,-8.1381,-8.152,-8.1528,-8.1537,0,0,0,0,0,0,0,0,0,0,0,0,0,-8.1022,-8.103,-8.1393,-8.1394,-8.1396,-8.1527,-8.1529,-8.153,-8.1398,-8.1391,-8.1385,-8.1379,-8.1517,-8.1527,-8.1537,0,0,0,0,0,0,0,0,0,0,0,0,0,-8.1173,-8.1032,-8.1392,-8.1346,-8.1343,-8.1526,-8.1529,-8.1531,-8.1399,-8.1391,-8.1383,-8.1376,-8.1514,-8.1526,-8.1539,-8.1776,0,0,-8.1578,-8.1584,0,0,0,0,0,0,0,0,-8.1164,-8.1186,-8.1351,-8.1349,-8.1346,-8.1437,-8.1449,-8.1613,-8.1401,-8.1378,-8.1381,-8.1372,-8.1499,-8.1512,-8.1555,-8.1782,-8.1788,-8.1579,-8.1587,-8.1592,-8.1596,0,0,0,0,0,0,0,-8.1154,-8.118,-8.1446,-8.1353,-8.1351,-8.1318,-8.1331,-8.1479,-8.1481,-8.1379,-8.137,-8.1388,-8.1496,-8.1543,-8.1557,-8.179,-8.1579,-8.159,-8.1598,-8.1603,-8.2217,-8.2226,0,0,0,0,0,0,-8.1149,-8.1172,-8.1441,-8.145,-8.1234,-8.1331,-8.1345,-8.1416,-8.1479,-8.1481,-8.1394,-8.1381,-8.1525,-8.1542,-8.1561,-8.184,-8.1592,-8.1604,-8.1612,-8.2209,-8.2219,-8.2229,0,0,0,0,0,0,-8.1141,-8.1174,-8.1436,-8.1309,-8.1339,-8.1346,-8.1426,-8.1423,-8.1469,-8.149,-8.149,-8.1441,-8.1519,-8.1543,-8.1723,-8.1843,-8.161,-8.1622,-8.2199,-8.2212,-8.2224,-8.2402,0,0,0,0,0,0,-8.1131,-8.1172,-8.1261,-8.1312,-8.1347,-8.1595,-8.1434,-8.1431,-8.1492,-8.1475,-8.1534,-8.1536,-8.1515,-8.1704,-8.1736,-8.1857,-8.1632,-8.2188,-8.2205,-8.222,-8.2385,-8.2419,-8.2449,0,0,0,0,0,-8.1118,-8.1307,-8.1267,-8.13,-8.1459,-8.1602,-8.1623,-8.1593,-8.1502,-8.1592,-8.1605,-8.1535,-8.1827,-8.1724,-8.1758,-8.1885,-8.218,-8.22,-8.2219,-8.2371,-8.2413,-8.2448,0,0,0,0,0,0,-8.127,-8.1312,-8.1268,-8.1478,-8.1538,-8.158,-8.1692,-8.1639,-8.1725,-8.1707,-8.1668,-8.1682,-8.1872,-8.1897,-8.1782,-8.2117,-8.1988,-8.2015,-8.2092,-8.2132,-8.2163,-8.2151,-8.1643,0,0,0,0,0,-8.1329,-8.1442,-8.1472,-8.1655,-8.1687,-8.1685,-8.1747,-8.172,-8.1779,-8.1804,-8.183,-8.1892,-8.1997,-8.2067,-8.2165,-8.239,-8.24,-8.2495,-8.2526,-8.2552,-8.2574,-8.2694,-8.2735,-8.2292,-8.2292,-8.2292,0,0,-8.1449,-8.1486,-8.156,-8.1686,-8.1729,-8.1847,-8.1707,-8.1838,-8.1924,-8.1824,-8.1993,-8.2017,-8.2082,-8.2285,-8.2376,-8.2312,-8.27,-8.2577,-8.2597,-8.2605,-8.2718,-8.276,-8.2797,-8.2305,-8.2303,-8.2301,0,0,-8.1728,-8.1769,-8.1924,-8.197,-8.2037,-8.2035,-8.2073,-8.2124,-8.2134,-8.2305,-8.2232,-8.2336,-8.2518,-8.2567,-8.2616,-8.2918,-8.2855,-8.2951,-8.3114,-8.3231,-8.3266,-8.3297,-8.3401,-8.3439,-8.2975,-8.2975,-8.2975,0,-8.1868,-8.2042,-8.201,-8.2146,-8.2203,-8.212,-8.2276,-8.2323,-8.2419,-8.2461,-8.2389,-8.2616,-8.2654,-8.2867,-8.294,-8.2984,-8.3025,-8.2941,-8.3264,-8.3294,-8.3322,-8.3421,-8.3461,-8.2986,-8.2985,-8.2984,-8.2983,0,-8.2211,-8.2333,-8.2451,-8.2545,-8.2617,-8.2763,-8.2753,-8.2829,-8.2798,-8.2804,-8.2978,-8.3023,-8.3127,-8.3177,-8.3148,-8.3386,-8.3344,-8.3269,-8.3138,-8.3376,-8.3468,-8.3506,-8.3002,-8.2998,-8.2994,-8.2992,0,0,-8.2584,-8.2661,-8.2704,-8.2745,-8.2815,-8.2908,-8.3052,-8.3154,-8.3219,-8.329,-8.3407,-8.3565,-8.3496,-8.3553,-8.3528,-8.3632,-8.3864,-8.3544,-8.3544,-8.3598,-8.4127,-8.4179,-8.4223,-8.3825,-8.3833,-8.3838,-8.412,0,-8.2861,-8.3107,-8.3084,-8.3318,-8.3429,-8.3354,-8.3478,-8.3534,-8.3545,-8.3641,-8.3653,-8.3764,-8.3667,-8.37,-8.3799,-8.3815,-8.3969,-8.3795,-8.3932,-8.3937,-8.3912,-8.4272,-8.4327,-8.459,-8.4156,-8.4162,-8.4166,0,-8.3216,-8.3299,-8.3543,-8.3596,-8.3642,-8.3754,-8.3845,-8.394,-8.4003,-8.4003,-8.4068,-8.4026,-8.417,-8.4041,-8.4237,-8.4119,-8.4175,-8.4192,-8.4202,-8.4209,-8.4062,-8.4285,-8.4674,-8.4712,-8.4224,-8.4219,-8.4215,0,-8.3458,-8.3632,-8.38,-8.3838,-8.3905,-8.3985,-8.4016,-8.4071,-8.4135,-8.4217,-8.4257,-8.4356,-8.4408,-8.4486,-8.4472,-8.4379,-8.4672,-8.4542,-8.4675,-8.4675,-8.4735,-8.473,-8.5134,-8.478,-8.478,-8.4779,-8.4778,0,-8.3767,-8.3919,-8.3909,-8.4012,-8.418,-8.4154,-8.4321,-8.4343,-8.4394,-8.4499,-8.4442,-8.4543,-8.4521,-8.4622,-8.4614,-8.4776,-8.4802,-8.4805,-8.48,-8.4807,-8.4806,-8.4839,-8.4819,-8.4789,-8.4787,-8.4785,-8.4783,0,-8.4063,-8.4063,-8.4241,-8.429,-8.4306,-8.4428,-8.4469,-8.4567,-8.4575,-8.471,-8.474,-8.4752,-8.4867,-8.4863,-8.4995,-8.4989,-8.5188,-8.5165,-8.5166,-8.5159,-8.5291,-8.5277,-8.5725,-8.5782,-8.5396,-8.54,-8.5403,0,-8.4257,-8.4372,-8.4434,-8.4501,-8.4537,-8.4647,-8.4711,-8.4691,-8.4761,-8.4842,-8.493,-8.5041,-8.5127,-8.5316,-8.5336,-8.5437,-8.5412,-8.5563,-8.5426,-8.543,-8.5409,-8.54,-8.541,-8.5587,-8.5592,-8.5595,-8.5598,0,-8.46,-8.4595,-8.469,-8.4787,-8.4865,-8.494,-8.5009,-8.5067,-8.5055,-8.5136,-8.5254,-8.5321,-8.5456,-8.5566,-8.5663,-8.5695,-8.5645,-8.5642,-8.5677,-8.5683,-8.5677,-8.5678,-8.5234,-8.563,-8.5627,-8.5624,-8.5623,-8.5621,-8.4848,-8.4946,-8.5005,-8.5113,-8.5163,-8.5229,-8.5322,-8.5342,-8.544,-8.5547,-8.5531,-8.5662,-8.5723,-8.5848,-8.5891,-8.5993,-8.5939,-8.5991,-8.6003,-8.6015,-8.6028,-8.5666,-8.6011,-8.601,-8.6009,-8.6009,-8.6008,0,-8.5184,-8.5219,-8.5319,-8.5417,-8.5502,-8.545,-8.5524,-8.5598,-8.5714,-8.5776,-8.5863,-8.5998,-8.6105,-8.6136,-8.6239,-8.6315,-8.6294,-8.6342,-8.6334,-8.6342,-8.6072,-8.6029,-8.6357,-8.6357,-8.6357,-8.6357,-8.6357,-8.6357,-8.5368,-8.5531,-8.5533,-8.572,-8.5754,-8.5882,-8.5928,-8.5989,-8.6038,-8.6191,-8.628,-8.6299,-8.6349,-8.6456,-8.6552,-8.6558,-8.6596,-8.6653,-8.665,-8.6396,-8.6361,-8.6327,-8.6286,-8.6663,-8.6664,-8.691,-8.6912,-8.6914]},{"header":{"parameterUnit":"m.s-1","parameterCategory":1,"la1":30.2991,"la2":30.254,"lo1":-89.0895,"lo2":-89.0444,"dy":0.0017,"dx":0.0017,"nx":28,"ny":28,"refTime":"2024-02-29T03:00:00:Z","depth":0,"parameterNumber":3,"parameterNumberName":"V-component_of_WINDS"},"data":[0,0,0,0,0,0,0,0,0,0,0,0,0,0,0,0,0,0,0,0,0,0,0,0,0,0,0,0,0,0,0,0,0,0,0,0,0,0,0,0,0,0,0,0,0,0,0,0,0,0,0,0,0,0,0,0,0,0,1.104,1.1041,0,1.1176,1.1178,1.118,1.1191,1.119,1.1188,1.1187,1.1331,1.1336,1.1341,0,0,0,0,0,0,0,0,0,0,0,0,0,1.0794,1.0799,1.1039,1.1041,1.1043,1.1176,1.1178,1.118,1.1192,1.119,1.1188,1.1186,1.1329,1.1335,1.1342,0,0,0,0,0,0,0,0,0,0,0,0,0,1.0913,1.08,1.1039,1.1065,1.1068,1.1176,1.1178,1.118,1.1192,1.119,1.1188,1.1186,1.1327,1.1335,1.1343,1.1435,0,0,1.1366,1.137,0,0,0,0,0,0,0,0,1.0906,1.0922,1.1059,1.1063,1.1067,1.1164,1.1144,1.1266,1.1193,1.1145,1.1187,1.1184,1.1278,1.1289,1.132,1.1442,1.1448,1.1367,1.1372,1.1375,1.1377,0,0,0,0,0,0,0,1.0898,1.0916,1.1094,1.1061,1.1066,1.1071,1.1086,1.1168,1.1222,1.1149,1.115,1.1166,1.128,1.1313,1.1324,1.145,1.1367,1.1374,1.1379,1.1382,1.1659,1.1661,0,0,0,0,0,0,1.0884,1.0909,1.1089,1.1098,1.098,1.1078,1.1094,1.1136,1.1221,1.1232,1.1168,1.1166,1.13,1.1314,1.1329,1.1445,1.1375,1.1383,1.1387,1.1656,1.1659,1.1662,0,0,0,0,0,0,1.0879,1.09,1.1084,1.1004,1.1028,1.1084,1.1131,1.1139,1.1172,1.1236,1.1246,1.1191,1.1299,1.1318,1.1409,1.145,1.1386,1.1393,1.1653,1.1657,1.1661,1.1676,0,0,0,0,0,0,1.0872,1.0898,1.0932,1.1005,1.1032,1.116,1.1134,1.1144,1.1185,1.1184,1.126,1.1271,1.1299,1.1397,1.1417,1.146,1.1399,1.165,1.1655,1.166,1.1673,1.1681,1.1687,0,0,0,0,0,1.0863,1.0931,1.0934,1.0955,1.1075,1.1162,1.1178,1.1208,1.1188,1.1225,1.1266,1.1268,1.1442,1.1407,1.1429,1.1474,1.1647,1.1653,1.1659,1.1669,1.1679,1.1687,0,0,0,0,0,0,1.0862,1.0941,1.0945,1.1038,1.1093,1.1164,1.121,1.1217,1.128,1.1277,1.1313,1.133,1.142,1.1457,1.1415,1.157,1.1543,1.1554,1.1543,1.1553,1.156,1.155,1.1406,0,0,0,0,0,1.0873,1.0935,1.1001,1.1077,1.1105,1.1153,1.1192,1.121,1.127,1.1294,1.1341,1.14,1.1469,1.1513,1.1579,1.1678,1.1696,1.1721,1.1728,1.1734,1.1743,1.1801,1.1814,1.1682,1.1682,1.1682,0,0,1.0896,1.0946,1.0984,1.1079,1.1124,1.119,1.1172,1.1242,1.1293,1.1305,1.1394,1.1432,1.15,1.1596,1.1641,1.1629,1.1784,1.1742,1.1746,1.1752,1.1809,1.1821,1.1832,1.1686,1.1685,1.1685,0,0,1.0971,1.1015,1.1084,1.113,1.1199,1.1231,1.1247,1.1318,1.1343,1.1434,1.1445,1.1506,1.1622,1.1672,1.1712,1.181,1.1815,1.183,1.1869,1.1926,1.1936,1.1945,1.1982,1.1995,1.1839,1.1839,1.1839,0,1.0991,1.1089,1.1119,1.119,1.1233,1.1246,1.1319,1.1362,1.145,1.148,1.1465,1.1613,1.166,1.177,1.1794,1.1825,1.1848,1.1822,1.1932,1.1941,1.1951,1.1987,1.2,1.1841,1.1841,1.184,1.184,0,1.1112,1.118,1.1228,1.1312,1.136,1.1431,1.1474,1.152,1.1536,1.157,1.1664,1.1721,1.18,1.1828,1.1843,1.1941,1.1932,1.1924,1.1897,1.1964,1.1999,1.2012,1.1843,1.1842,1.1842,1.1841,0,0,1.1188,1.129,1.1307,1.1346,1.1425,1.1479,1.1553,1.163,1.1669,1.173,1.1794,1.1894,1.1888,1.1934,1.1955,1.2005,1.2082,1.1992,1.1994,1.2008,1.2196,1.2202,1.2217,1.2086,1.2089,1.2091,1.2191,0,1.1274,1.1402,1.1433,1.1545,1.161,1.1626,1.1691,1.1747,1.1782,1.1844,1.1884,1.1954,1.194,1.1968,1.2018,1.2062,1.2121,1.2055,1.2148,1.2151,1.2131,1.2235,1.2241,1.2332,1.2205,1.2207,1.2209,0,1.1389,1.1453,1.1571,1.1643,1.1672,1.1729,1.1804,1.1862,1.1928,1.1951,1.2003,1.2021,1.21,1.207,1.2182,1.2137,1.2177,1.2205,1.2209,1.222,1.2184,1.2249,1.2362,1.2376,1.223,1.2228,1.2226,0,1.1436,1.1551,1.1637,1.167,1.1756,1.1797,1.1835,1.1898,1.1944,1.201,1.2041,1.2115,1.2157,1.2216,1.2254,1.2228,1.2364,1.2336,1.2387,1.2386,1.2415,1.2412,1.2536,1.2439,1.2439,1.2439,1.2438,0,1.1528,1.16,1.1659,1.1712,1.1795,1.1831,1.1912,1.1951,1.2008,1.2071,1.209,1.2149,1.2195,1.2262,1.2292,1.2382,1.24,1.2422,1.243,1.2421,1.2418,1.2448,1.2443,1.2442,1.2441,1.2441,1.244,0,1.1594,1.1636,1.1731,1.1806,1.1827,1.1884,1.1949,1.2003,1.2039,1.2119,1.214,1.2197,1.2277,1.2321,1.242,1.2441,1.2542,1.2546,1.2519,1.2523,1.2572,1.2567,1.272,1.2743,1.2629,1.263,1.2631,0,1.165,1.1706,1.1787,1.183,1.1869,1.1938,1.1985,1.2024,1.2072,1.2153,1.2198,1.2278,1.2344,1.2471,1.2523,1.26,1.2607,1.2655,1.2619,1.2609,1.261,1.2606,1.2613,1.2661,1.2663,1.2663,1.2664,0,1.1746,1.1765,1.1831,1.1906,1.1961,1.2022,1.2082,1.2117,1.2166,1.222,1.2301,1.2353,1.2455,1.2536,1.2618,1.266,1.2672,1.2675,1.2692,1.2683,1.2667,1.2678,1.2538,1.2672,1.2671,1.267,1.267,1.267,1.181,1.1862,1.1928,1.2002,1.2051,1.2108,1.2163,1.2207,1.2274,1.236,1.238,1.2466,1.2534,1.2645,1.269,1.2759,1.2751,1.2773,1.2779,1.2785,1.2787,1.2655,1.2774,1.2774,1.2774,1.2774,1.2774,0,1.1909,1.1953,1.202,1.2105,1.2164,1.2169,1.2237,1.2286,1.2361,1.2423,1.2489,1.2584,1.2663,1.2722,1.2803,1.2848,1.2856,1.2868,1.2866,1.2876,1.279,1.2768,1.2861,1.2861,1.2861,1.2861,1.2861,1.2861,1.1967,1.2056,1.2083,1.2197,1.2241,1.2325,1.2364,1.2417,1.2467,1.2572,1.2638,1.2675,1.2738,1.2824,1.2898,1.2914,1.2943,1.2956,1.2972,1.2891,1.2881,1.2872,1.2853,1.2961,1.2961,1.3053,1.3053,1.3054]}]]